GW1238 Weather Reports


time (UTC)temp
F
wind
direction
speed
knots
gust
knots
rain 1hr
in
rain 24hr
in
rain mn
in
humidity
%
barometer
mb
20260831005508 80 346 1.7 2.6 0.00 0.00 0.00 83 1021.7
20260831005006 80 334 1.7 1.7 0.00 0.00 0.00 82 1021.7
20260831004504 80 330 1.7 1.7 0.00 0.00 0.00 83 1021.5
20260831003959 81 333 0.9 1.7 0.00 0.00 0.00 82 1021.4
20260831003455 81 336 1.7 2.6 0.00 0.00 0.00 82 1021.4
20260831002954 81 334 1.7 1.7 0.00 0.00 0.00 81 1021.4
20260831002454 82 349 1.7 1.7 0.00 0.00 0.00 82 1021.4
20260831001949 82 340 1.7 1.7 0.00 0.00 0.00 81 1021.2
20260831001444 82 342 0.9 1.7 0.00 0.00 0.00 80 1021.3
20260831000941 83 339 0.9 0.9 0.00 0.00 0.00 77 1021.2
20260831000437 85 6 0.9 0.9 0.00 0.00 0.00 74 1021.3
20260830235935 87 122 1.7 1.7 0.00 0.00 0.00 68 1021.2
20260830235430 87 120 0.9 1.7 0.00 0.00 0.00 70 1021.5
20260830234925 87 119 1.7 1.7 0.00 0.00 0.00 67 1021.5
20260830234420 87 127 1.7 2.6 0.00 0.00 0.00 70 1021.3
20260830233916 87 126 1.7 3.5 0.00 0.00 0.00 69 1021.3
20260830233411 87 126 2.6 3.5 0.00 0.00 0.00 67 1021.4
20260830232907 87 133 2.6 3.5 0.00 0.00 0.00 65 1021.4
20260830232403 88 132 3.5 3.5 0.00 0.00 0.00 65 1021.4
20260830231859 88 131 2.6 3.5 0.00 0.00 0.00 68 1021.3
20260830231354 88 131 3.5 3.5 0.00 0.00 0.00 67 1021.2
20260830230853 88 133 3.5 5.2 0.00 0.00 0.00 64 1021.4
20260830230349 89 107 1.7 1.7 0.00 0.00 0.00 65 1021.4
20260830225848 89 31 0.9 1.7 0.00 0.00 0.00 66 1021.2
20260830225344 89 82 0.9 2.6 0.00 0.00 0.00 64 1021.4
20260830224838 90 115 1.7 1.7 0.00 0.00 0.00 63 1021.3
20260830224332 90 111 0.9 1.7 0.00 0.00 0.00 66 1021.2
20260830223829 89 93 1.7 1.7 0.00 0.00 0.00 63 1021.4
20260830223325 89 93 1.7 2.6 0.00 0.00 0.00 63 1021.2
20260830222824 90 119 0.9 1.7 0.00 0.00 0.00 63 1021.4
20260830222320 90 149 1.7 1.7 0.00 0.00 0.00 60 1021.3
20260830221815 89 116 1.7 1.7 0.00 0.00 0.00 63 1021.3
20260830221313 89 122 1.7 2.6 0.00 0.00 0.00 60 1021.3
20260830220812 89 137 1.7 2.6 0.00 0.00 0.00 59 1021.1
20260830220312 89 147 1.7 2.6 0.00 0.00 0.00 65 1021.5
20260830215810 89 116 1.7 1.7 0.00 0.00 0.00 64 1021.4
20260830215305 89 129 1.7 1.7 0.00 0.00 0.00 64 1021.3
20260830214800 89 145 1.7 2.6 0.00 0.00 0.00 63 1021.5
20260830214254 89 138 2.6 3.5 0.00 0.00 0.00 63 1021.4
20260830213754 89 143 1.7 2.6 0.00 0.00 0.00 65 1021.4
20260830213249 90 123 1.7 1.7 0.00 0.00 0.00 65 1021.4
20260830212745 89 115 2.6 3.5 0.00 0.00 0.00 66 1021.5
20260830212241 91 104 1.7 1.7 0.00 0.00 0.00 63 1021.4
20260830211740 92 148 0.0 0.0 0.00 0.00 0.00 58 1021.4
20260830211239 90 85 1.7 1.7 0.00 0.00 0.00 59 1021.4
20260830210735 90 120 0.9 1.7 0.00 0.00 0.00 58 1021.4
20260830210234 90 111 0.9 1.7 0.00 0.00 0.00 59 1021.6
20260830205731 90 103 1.7 1.7 0.00 0.00 0.00 63 1021.5
20260830205227 89 125 1.7 2.6 0.00 0.00 0.00 60 1021.5
20260830204722 90 104 1.7 2.6 0.00 0.00 0.00 61 1021.5
20260830204221 91 105 1.7 1.7 0.00 0.00 0.00 60 1021.7
20260830203717 91 114 0.9 1.7 0.00 0.00 0.00 56 1021.7
20260830203213 92 133 0.0 0.9 0.00 0.00 0.00 55 1021.6
20260830202712 94 134 0.0 0.9 0.00 0.00 0.00 54 1021.7
20260830202208 94 138 0.9 0.9 0.00 0.00 0.00 52 1021.9
20260830201707 104 161 0.0 0.0 0.00 0.00 0.00 43 1021.7
20260830201203 104 174 0.0 0.0 0.00 0.00 0.00 41 1021.9
20260830200658 103 161 0.0 0.0 0.00 0.00 0.00 46 1021.9
20260830200157 102 169 0.0 0.0 0.00 0.00 0.00 44 1022.1
20260830195653 101 173 0.0 0.9 0.00 0.00 0.00 47 1022.1
20260830195150 97 164 0.9 0.9 0.00 0.00 0.00 50 1022.2
20260830194649 96 173 0.0 0.9 0.00 0.00 0.00 53 1022.4
20260830194149 94 152 0.0 0.0 0.00 0.00 0.00 55 1022.4
20260830193644 92 142 0.0 0.9 0.00 0.00 0.00 57 1022.4
20260830193139 93 141 0.0 0.9 0.00 0.00 0.00 55 1022.5
20260830192634 96 155 0.0 0.0 0.00 0.00 0.00 53 1022.4
20260830192129 95 116 0.9 0.9 0.00 0.00 0.00 55 1022.6
20260830191624 94 143 0.0 0.0 0.00 0.00 0.00 54 1022.6
20260830191119 90 155 0.0 0.9 0.00 0.00 0.00 61 1023.0
20260830190615 89 139 0.0 0.0 0.00 0.00 0.00 61 1022.7
20260830190110 88 99 0.9 1.7 0.00 0.00 0.00 65 1023.1
20260830185608 87 105 1.7 2.6 0.00 0.00 0.00 66 1023.2
20260830185104 89 112 0.9 1.7 0.00 0.00 0.00 62 1023.2
20260830184603 94 208 1.7 1.7 0.00 0.00 0.00 56 1023.3
20260830184103 93 170 0.0 0.0 0.00 0.00 0.00 59 1023.0
20260830183558 90 152 0.0 0.0 0.00 0.00 0.00 62 1023.6
20260830183054 87 117 0.9 1.7 0.00 0.00 0.00 66 1023.5
20260830182549 87 147 0.9 1.7 0.00 0.00 0.00 66 1023.7
20260830182045 87 144 0.0 1.7 0.00 0.00 0.00 66 1023.8
20260830181542 87 42 1.7 3.5 0.00 0.00 0.00 68 1023.9
20260830181041 87 133 0.0 0.9 0.00 0.00 0.00 67 1024.0
20260830180540 90 145 0.0 0.9 0.00 0.00 0.00 64 1023.9
20260830180035 89 201 1.7 2.6 0.00 0.00 0.00 65 1024.0
20260830175533 87 148 0.0 0.9 0.00 0.00 0.00 69 1024.0
20260830175028 87 135 0.9 1.7 0.00 0.00 0.00 68 1024.0
20260830174524 87 128 0.9 1.7 0.00 0.00 0.00 68 1024.1
20260830174024 87 193 1.7 3.5 0.00 0.00 0.00 68 1024.2
20260830173520 87 184 0.9 1.7 0.00 0.00 0.00 69 1024.2
20260830173015 88 215 2.6 2.6 0.00 0.00 0.00 68 1024.5
20260830172512 88 219 1.7 2.6 0.00 0.00 0.00 68 1024.5
20260830172008 88 171 0.0 0.9 0.00 0.00 0.00 69 1024.4
20260830171504 88 137 0.0 0.0 0.00 0.00 0.00 68 1024.6
20260830171003 87 150 0.0 0.0 0.00 0.00 0.00 71 1024.6
20260830170457 85 148 0.0 0.9 0.00 0.00 0.00 72 1024.8
20260830165955 85 141 0.0 0.9 0.00 0.00 0.00 73 1024.8
20260830165452 84 131 0.9 1.7 0.00 0.00 0.00 73 1024.9
20260830164948 85 125 0.9 1.7 0.00 0.00 0.00 74 1025.0
20260830164443 87 180 0.9 1.7 0.00 0.00 0.00 71 1025.0
20260830163939 86 176 0.0 0.9 0.00 0.00 0.00 72 1024.9
20260830163436 86 203 1.7 1.7 0.00 0.00 0.00 73 1025.2
20260830162935 85 213 1.7 3.5 0.00 0.00 0.00 73 1025.2
20260830162431 87 196 2.6 2.6 0.00 0.00 0.00 74 1025.2
20260830161931 87 187 0.9 1.7 0.00 0.00 0.00 71 1025.1
20260830161431 86 161 0.0 0.9 0.00 0.00 0.00 75 1025.3
20260830160926 84 185 0.9 3.5 0.00 0.00 0.00 76 1025.3
20260830160423 84 171 0.9 2.6 0.00 0.00 0.00 76 1025.1
20260830155917 83 196 0.9 1.7 0.00 0.00 0.00 78 1025.2
20260830155414 83 196 1.7 1.7 0.00 0.00 0.00 80 1025.3
20260830154908 82 224 2.6 5.2 0.00 0.00 0.00 80 1025.3
20260830154404 82 218 2.6 3.5 0.00 0.00 0.00 81 1025.3
20260830153901 82 224 1.7 3.5 0.00 0.00 0.00 81 1025.4
20260830153356 82 226 2.6 2.6 0.00 0.00 0.00 80 1025.6
20260830152855 82 205 2.6 5.2 0.00 0.00 0.00 82 1025.3
20260830152350 82 201 1.7 2.6 0.00 0.00 0.00 82 1025.5
20260830151844 82 207 1.7 3.5 0.00 0.00 0.00 82 1025.4
20260830151343 82 211 2.6 3.5 0.00 0.00 0.00 82 1025.4
20260830150838 82 194 0.0 1.7 0.00 0.00 0.00 82 1025.4
20260830150338 81 220 2.6 2.6 0.00 0.00 0.00 83 1025.5
20260830145832 81 244 1.7 2.6 0.00 0.00 0.00 83 1025.5
20260830145327 81 211 1.7 2.6 0.00 0.00 0.00 83 1025.7
20260830144823 81 229 1.7 3.5 0.00 0.00 0.00 84 1025.6
20260830144319 81 216 2.6 2.6 0.00 0.00 0.00 83 1025.4
20260830143814 81 218 2.6 3.5 0.00 0.00 0.00 84 1025.3
20260830143314 81 194 1.7 2.6 0.00 0.00 0.00 83 1025.4
20260830142808 82 224 3.5 3.5 0.00 0.00 0.00 84 1025.4
20260830142305 82 193 3.5 3.5 0.00 0.00 0.00 85 1025.3
20260830141759 81 204 3.5 3.5 0.00 0.00 0.00 85 1025.4
20260830141254 81 209 2.6 3.5 0.00 0.00 0.00 84 1025.4
20260830140749 81 212 4.3 5.2 0.00 0.00 0.00 84 1025.4
20260830140249 81 185 2.6 2.6 0.00 0.00 0.00 84 1025.3
20260830135743 82 185 3.5 3.5 0.00 0.00 0.00 83 1025.1
20260830135239 82 200 3.5 5.2 0.00 0.00 0.00 82 1025.5
20260830134735 82 222 2.6 2.6 0.00 0.00 0.00 80 1025.3
20260830134230 83 213 1.7 1.7 0.00 0.00 0.00 80 1025.4
20260830133725 82 185 0.9 2.6 0.00 0.00 0.00 81 1025.5
20260830133221 83 196 0.9 1.7 0.00 0.00 0.00 80 1025.2
20260830132716 84 192 0.0 1.7 0.00 0.00 0.00 78 1025.2
20260830132212 84 154 0.0 0.9 0.00 0.00 0.00 79 1025.3
20260830131711 83 209 0.9 0.9 0.00 0.00 0.00 79 1025.3
20260830131211 84 185 0.9 1.7 0.00 0.00 0.00 79 1025.4
20260830130706 83 177 0.9 1.7 0.00 0.00 0.00 80 1025.2
20260830130206 83 163 0.0 0.9 0.00 0.00 0.00 82 1024.9
20260830125706 82 174 0.0 1.7 0.00 0.00 0.00 82 1025.1
20260830125201 82 163 0.0 0.9 0.00 0.00 0.00 83 1025.2
20260830124658 81 188 0.9 1.7 0.00 0.00 0.00 85 1025.0
20260830124154 80 183 1.7 1.7 0.00 0.00 0.00 87 1025.0
20260830123651 79 182 0.9 1.7 0.00 0.00 0.00 88 1024.9
20260830123146 78 176 1.7 1.7 0.00 0.00 0.00 89 1024.9
20260830122643 78 178 0.9 1.7 0.00 0.00 0.00 94 1025.0
20260830122139 76 194 0.9 1.7 0.00 0.00 0.00 96 1024.8
20260830121635 76 191 1.7 1.7 0.00 0.00 0.00 97 1024.7
20260830121134 75 159 0.0 0.9 0.00 0.00 0.00 98 1024.6
20260830120629 74 52 0.0 0.9 0.00 0.00 0.00 98 1024.8
20260830120125 74 346 0.9 1.7 0.00 0.00 0.00 98 1024.5
20260830115621 74 336 0.9 1.7 0.00 0.00 0.00 98 1024.5
20260830115116 73 334 1.7 1.7 0.00 0.00 0.00 99 1024.6
20260830114613 73 343 0.9 1.7 0.00 0.00 0.00 99 1024.4
20260830114112 73 355 0.9 1.7 0.00 0.00 0.00 99 1024.5
20260830113608 73 344 0.9 1.7 0.00 0.00 0.00 99 1024.3
20260830113103 73 327 0.9 1.7 0.00 0.00 0.00 99 1024.1
20260830112559 72 340 1.7 1.7 0.00 0.00 0.00 99 1024.0
20260830112055 73 337 0.9 1.7 0.00 0.00 0.00 99 1024.1
20260830111551 73 345 0.9 1.7 0.00 0.00 0.00 99 1024.0
20260830111047 73 340 1.7 1.7 0.00 0.00 0.00 99 1024.0
20260830110546 73 342 0.9 1.7 0.00 0.00 0.00 99 1024.0
20260830110042 73 359 0.9 1.7 0.00 0.00 0.00 99 1024.1
20260830105536 73 331 0.9 1.7 0.00 0.00 0.00 99 1024.0
20260830105033 73 332 0.9 1.7 0.00 0.00 0.00 99 1023.8
20260830104529 72 330 0.9 1.7 0.00 0.00 0.00 99 1023.6
20260830104025 73 341 0.9 1.7 0.00 0.00 0.00 99 1023.8
20260830103520 73 351 0.9 1.7 0.00 0.00 0.00 99 1023.8
20260830103019 73 333 1.7 1.7 0.00 0.00 0.00 99 1023.5
20260830102513 73 344 0.9 1.7 0.00 0.00 0.00 98 1023.7
20260830102009 73 332 0.9 1.7 0.00 0.00 0.00 98 1023.8
20260830101505 73 338 0.9 1.7 0.00 0.00 0.00 98 1023.7
20260830101004 73 340 0.9 1.7 0.00 0.00 0.00 98 1023.8
20260830100504 73 324 1.7 1.7 0.00 0.00 0.00 98 1023.7
20260830100002 73 340 1.7 1.7 0.00 0.00 0.00 98 1023.5
20260830095458 73 335 0.9 1.7 0.00 0.00 0.00 98 1023.8
20260830094954 73 341 1.7 1.7 0.00 0.00 0.00 98 1023.6
20260830094449 73 341 0.9 1.7 0.00 0.00 0.00 98 1023.6
20260830093945 74 342 0.9 1.7 0.00 0.00 0.00 98 1023.6
20260830093440 74 341 0.9 1.7 0.00 0.00 0.00 98 1023.8
20260830092936 74 340 0.9 1.7 0.00 0.00 0.00 98 1023.6
20260830092431 74 0 0.9 0.9 0.00 0.00 0.00 98 1023.6
20260830091928 73 328 1.7 1.7 0.00 0.00 0.00 98 1023.6
20260830091428 73 341 1.7 1.7 0.00 0.00 0.00 98 1023.6
20260830090927 73 340 1.7 2.6 0.00 0.00 0.00 97 1023.6
20260830090422 73 343 1.7 2.6 0.00 0.00 0.00 96 1023.4
20260830085917 74 330 1.7 1.7 0.00 0.00 0.00 94 1023.6
20260830085412 76 164 1.7 2.6 0.00 0.00 0.00 93 1023.5
20260830084908 76 176 1.7 2.6 0.00 0.00 0.00 95 1023.5
20260830084403 74 127 0.0 0.0 0.00 0.00 0.00 97 1023.5
20260830083859 74 21 0.9 1.7 0.00 0.00 0.00 97 1023.2
20260830083355 74 347 0.9 1.7 0.00 0.00 0.00 97 1023.5
20260830082854 74 327 1.7 2.6 0.00 0.00 0.00 97 1023.5
20260830082349 74 333 1.7 1.7 0.00 0.00 0.00 96 1023.4
20260830081844 74 336 0.9 1.7 0.00 0.00 0.00 96 1023.4
20260830081338 74 308 0.9 1.7 0.00 0.00 0.00 96 1023.4
20260830080833 74 351 0.9 2.6 0.00 0.00 0.00 96 1023.4
20260830080330 74 350 0.9 1.7 0.00 0.00 0.00 96 1023.2
20260830075828 74 339 1.7 1.7 0.00 0.00 0.00 96 1023.4
20260830075324 74 331 0.9 1.7 0.00 0.00 0.00 96 1023.4
20260830074818 74 331 1.7 1.7 0.00 0.00 0.00 95 1023.3
20260830074314 75 331 1.7 1.7 0.00 0.00 0.00 95 1023.4
20260830073810 75 347 0.9 1.7 0.00 0.00 0.00 95 1023.4
20260830073306 75 309 0.9 1.7 0.00 0.00 0.00 94 1023.3
20260830072806 76 156 1.7 1.7 0.00 0.00 0.00 94 1023.5
20260830072306 75 339 0.0 1.7 0.00 0.00 0.00 95 1023.4
20260830071801 75 166 0.0 0.9 0.00 0.00 0.00 96 1023.5
20260830071256 74 321 0.9 1.7 0.00 0.00 0.00 96 1023.4
20260830070755 74 336 0.9 1.7 0.00 0.00 0.00 96 1023.4
20260830070250 74 332 1.7 1.7 0.00 0.00 0.00 96 1023.3
20260830065749 74 331 1.7 1.7 0.00 0.00 0.00 96 1023.1
20260830065243 74 356 0.9 1.7 0.00 0.00 0.00 96 1023.3
20260830064741 74 337 1.7 1.7 0.00 0.00 0.00 96 1023.3
20260830064237 74 333 1.7 1.7 0.00 0.00 0.00 96 1023.4
20260830063731 74 341 1.7 1.7 0.00 0.00 0.00 96 1023.4
20260830063230 74 333 1.7 1.7 0.00 0.00 0.00 96 1023.4
20260830062725 74 328 1.7 1.7 0.00 0.00 0.00 96 1023.3
20260830062220 74 334 1.7 1.7 0.00 0.00 0.00 96 1023.4
20260830061720 74 340 1.7 1.7 0.00 0.00 0.00 96 1023.5
20260830061215 74 334 1.7 1.7 0.00 0.00 0.00 96 1023.6
20260830060712 75 338 1.7 2.6 0.00 0.00 0.00 96 1023.5
20260830060208 75 342 0.9 1.7 0.00 0.00 0.00 96 1023.4
20260830055703 75 327 1.7 1.7 0.00 0.00 0.00 95 1023.5
20260830055200 75 8 0.9 1.7 0.00 0.00 0.00 95 1023.6
20260830054654 75 325 1.7 1.7 0.00 0.00 0.00 94 1023.6
20260830054149 75 315 0.9 1.7 0.00 0.00 0.00 94 1023.4
20260830053646 76 354 0.0 1.7 0.00 0.00 0.00 94 1023.5
20260830053145 75 331 1.7 1.7 0.00 0.00 0.00 94 1023.7
20260830052640 75 335 1.7 1.7 0.00 0.00 0.00 94 1023.5
20260830052136 76 333 1.7 1.7 0.00 0.00 0.00 94 1023.6
20260830051636 76 327 1.7 1.7 0.00 0.00 0.00 94 1023.7
20260830051132 76 330 0.9 1.7 0.00 0.00 0.00 94 1023.6
20260830050630 76 333 1.7 1.7 0.00 0.00 0.00 94 1023.6
20260830050126 76 343 0.9 1.7 0.00 0.00 0.00 94 1023.6
20260830045624 76 353 0.9 0.9 0.00 0.00 0.00 94 1023.6
20260830045119 76 326 1.7 1.7 0.00 0.00 0.00 95 1023.6
20260830044618 76 339 0.9 1.7 0.00 0.00 0.00 95 1023.7
20260830044114 76 326 1.7 1.7 0.00 0.00 0.00 95 1023.6
20260830043609 75 331 1.7 1.7 0.00 0.00 0.00 95 1023.7
20260830043108 75 327 1.7 1.7 0.00 0.00 0.00 96 1023.6
20260830042607 75 336 1.7 1.7 0.00 0.00 0.00 96 1023.6
20260830042102 75 329 1.7 1.7 0.00 0.00 0.00 96 1023.7
20260830041600 75 336 1.7 1.7 0.00 0.00 0.00 95 1023.8
20260830041059 75 326 1.7 1.7 0.00 0.00 0.00 96 1023.6
20260830040555 75 319 1.7 1.7 0.00 0.00 0.00 95 1023.6
20260830040051 76 333 1.7 1.7 0.00 0.00 0.00 95 1023.7
20260830035548 75 332 1.7 1.7 0.00 0.00 0.00 95 1023.9
20260830035044 75 329 1.7 1.7 0.00 0.00 0.00 95 1023.5
20260830034540 75 336 1.7 1.7 0.00 0.00 0.00 95 1023.8
20260830034038 75 339 0.9 2.6 0.00 0.00 0.00 95 1023.6
20260830033534 75 337 1.7 1.7 0.00 0.00 0.00 94 1023.9
20260830033030 76 330 1.7 1.7 0.00 0.00 0.00 94 1023.6
20260830032529 76 333 1.7 1.7 0.00 0.00 0.00 94 1023.8
20260830032024 76 332 1.7 1.7 0.00 0.00 0.00 94 1023.4
20260830031520 76 340 0.9 1.7 0.00 0.00 0.00 95 1023.6
20260830031015 76 356 1.7 1.7 0.00 0.00 0.00 95 1023.6
20260830030511 76 341 1.7 2.6 0.00 0.00 0.00 95 1023.5
20260830030011 76 332 1.7 1.7 0.00 0.00 0.00 94 1023.5
20260830025509 76 337 1.7 1.7 0.00 0.00 0.00 94 1023.5
20260830025009 76 337 1.7 1.7 0.00 0.00 0.00 94 1023.4
20260830024504 76 341 0.9 2.6 0.00 0.00 0.00 94 1023.2
20260830024001 76 348 0.9 1.7 0.00 0.00 0.00 94 1023.3
20260830023500 76 341 1.7 1.7 0.00 0.00 0.00 94 1023.2
20260830022954 76 340 1.7 2.6 0.00 0.00 0.00 94 1023.2
20260830022450 76 335 1.7 1.7 0.00 0.00 0.00 94 1023.2
20260830021945 76 327 1.7 1.7 0.00 0.00 0.00 93 1023.0
20260830021440 77 343 1.7 1.7 0.00 0.00 0.00 93 1023.1
20260830020939 77 336 0.9 1.7 0.00 0.00 0.00 93 1022.9
20260830020434 77 334 0.9 1.7 0.00 0.00 0.00 93 1022.9
20260830015929 77 334 1.7 1.7 0.00 0.00 0.00 93 1022.9
20260830015424 77 332 0.9 1.7 0.00 0.00 0.00 93 1022.6
20260830014919 77 335 0.9 1.7 0.00 0.00 0.00 93 1022.4
20260830014415 77 341 1.7 2.6 0.00 0.00 0.00 92 1022.3
20260830013911 78 338 0.9 1.7 0.00 0.00 0.00 91 1022.2
20260830013406 78 8 0.9 1.7 0.00 0.00 0.00 92 1022.3
20260830012901 78 341 1.7 1.7 0.00 0.00 0.00 92 1022.1
20260830012357 78 331 1.7 1.7 0.00 0.00 0.00 92 1021.9
20260830011853 78 335 1.7 2.6 0.00 0.00 0.00 92 1021.7
20260830011348 78 335 1.7 1.7 0.00 0.00 0.00 92 1021.6
20260830010848 78 340 1.7 1.7 0.00 0.00 0.00 92 1021.5
20260830010343 78 333 1.7 1.7 0.00 0.00 0.00 91 1021.6
20260830005837 78 321 1.7 1.7 0.00 0.00 0.00 92 1021.6